Elwood, KS

12:40 AM CST on February 21, 2017 (GMT -0600)
Rosecrans Memorial

Weather History for KSTJ - July, 2013

Change the Weather History Date:

Wednesday, July 17, 2013

  Actual Average Record
Temperature  
Mean Temperature 81 °F 77 °F  
Max Temperature 92 °F 87 °F 106 °F (1954)
Min Temperature 70 °F 67 °F 51 °F (2014)
Degree Days  
Heating Degree Days 0 0  
Month to date heating degree days 0 0  
Since 1 June heating degree days 15 8  
Since 1 July heating degree days 0 0  
Cooling Degree Days 16 12  
Month to date cooling degree days 214 202  
Year to date cooling degree days 615 582  
Since 1 June cooling degree days 489 469  
Growing Degree Days 31 (Base 50)    
Moisture  
Dew Point 69 °F    
Average Humidity 67    
Maximum Humidity 87    
Minimum Humidity 47    
Precipitation  
Precipitation 0.00 in 0.18 in 1.98 in (1924)
Month to date precipitation 0.07 2.71  
Year to date precipitation 16.21 19.84  
Sea Level Pressure  
Sea Level Pressure 30.24 in    
Wind  
Wind Speed 4 mph (South)    
Max Wind Speed 12 mph    
Max Gust Speed 15 mph    
Visibility 10 miles    
Events      
T = Trace of Precipitation, MM = Missing Value Source: NWS Daily Summary

Daily Weather History Graph

Daily Weather History Graph

Search for Another Location

Airport or City:

Trip Planner

Search our weather history database for the weather conditions in past years. The results will help you decide how hot, cold, wet, or windy it might be!

Date:

Astronomy

Jul. 17, 2013 Rise Set
Actual Time 6:05 AM CDT 8:45 PM CDT
Civil Twilight 5:34 AM CDT 9:16 PM CDT
Nautical Twilight 4:54 AM CDT 9:56 PM CDT
Astronomical Twilight 4:10 AM CDT 10:40 PM CDT
Moon 3:35 PM CDT (7/17) 1:13 AM CDT (7/17)
Length of Visible Light 15h 42m
Length of Day
14h 39m
Waxing Gibbous, 67% of the Moon is Illuminated
Jul 17
Waxing Gibbous
Jul 22
Full
Jul 29
Last Quarter
Aug 6
New
Aug 14
First Quarter

Hourly Weather History & Observations

Time (CDT) Temp. Heat Index Dew Point Humidity Pressure Visibility Wind Dir Wind Speed Gust Speed Precip Events Conditions
12:53 AM 77.0 °F - 70.0 °F 79% 30.25 in 10.0 mi South 3.5 mph - N/A   Clear
1:53 AM 75.0 °F - 69.1 °F 82% 30.25 in 10.0 mi SSW 3.5 mph - N/A   Clear
2:53 AM 75.0 °F - 68.0 °F 79% 30.26 in 10.0 mi South 3.5 mph - N/A   Clear
3:53 AM 75.0 °F - 68.0 °F 79% 30.26 in 10.0 mi SSE 3.5 mph - N/A   Clear
4:53 AM 73.9 °F - 68.0 °F 82% 30.26 in 10.0 mi SSE 4.6 mph - N/A   Clear
5:53 AM 71.1 °F - 66.9 °F 87% 30.26 in 10.0 mi Calm Calm - N/A   Clear
6:53 AM 73.0 °F - 69.1 °F 87% 30.27 in 10.0 mi Calm Calm - N/A   Clear
7:53 AM 77.0 °F - 70.0 °F 79% 30.29 in 10.0 mi South 3.5 mph - N/A   Clear
8:53 AM 80.1 °F 83.2 °F 70.0 °F 71% 30.30 in 10.0 mi SW 3.5 mph - N/A   Clear
9:53 AM 82.9 °F 87.0 °F 70.0 °F 65% 30.30 in 10.0 mi Calm Calm - N/A   Clear
10:53 AM 87.1 °F 89.9 °F 66.9 °F 51% 30.30 in 10.0 mi SSW 5.8 mph - N/A   Clear
11:53 AM 88.0 °F 91.4 °F 68.0 °F 51% 30.29 in 10.0 mi SSW 4.6 mph - N/A   Clear
12:53 PM 89.1 °F 92.9 °F 68.0 °F 50% 30.28 in 10.0 mi SE 3.5 mph - N/A   Clear
1:53 PM 89.1 °F 93.7 °F 69.1 °F 52% 30.26 in 10.0 mi Calm Calm - N/A   Scattered Clouds
2:53 PM 91.9 °F 97.4 °F 70.0 °F 48% 30.24 in 10.0 mi SSE 8.1 mph - N/A   Partly Cloudy
3:53 PM 90.0 °F 94.5 °F 69.1 °F 50% 30.22 in 10.0 mi South 10.4 mph - N/A   Partly Cloudy
4:53 PM 90.0 °F 96.4 °F 71.1 °F 54% 30.21 in 10.0 mi South 8.1 mph - N/A   Clear
5:53 PM 91.0 °F 95.6 °F 69.1 °F 48% 30.19 in 10.0 mi South 6.9 mph - N/A   Clear
6:53 PM 90.0 °F 94.5 °F 69.1 °F 50% 30.18 in 10.0 mi SSE 4.6 mph - N/A   Clear
7:53 PM 89.1 °F 92.1 °F 66.9 °F 48% 30.17 in 10.0 mi SSE 8.1 mph - N/A   Clear
8:53 PM 84.0 °F 88.4 °F 70.0 °F 63% 30.17 in 10.0 mi SSE 3.5 mph - N/A   Clear
9:53 PM 82.0 °F 85.5 °F 69.1 °F 65% 30.17 in 10.0 mi SSE 4.6 mph - N/A   Clear
10:53 PM 80.1 °F 82.9 °F 69.1 °F 69% 30.18 in 10.0 mi South 4.6 mph - N/A   Clear
11:53 PM 77.0 °F - 69.1 °F 76% 30.18 in 10.0 mi Calm Calm - N/A   Clear